User: anonymous   Login
Location: Beadle
(51.4667°N, 109.0000°W)
Time: 11:20:37
(UTC+00:00)
Language:

YUBILEINY - Orbit

View from above orbital plane
View from above orbital plane
View from above satellite
View from above satellite

Ground track
Ground track

The orbit data is extracted from the following two-line orbital elements,

1 32953U 08025A   22180.77299889  .00000024  00000-0  10000-3 0  9999
2 32953  82.5025 176.2749 0018106 231.3982 128.5481 12.43111368639867
Epoch (UTC): 29 June 2022 18:33:07
Eccentricity: 0.0018106
inclination: 82.5025°
perigee height: 1479 km
apogee height: 1507 km
right ascension of ascending node: 176.2749°
argument of perigee: 231.3982°
revolutions per day: 12.43111368
mean anomaly at epoch: 128.5481°
orbit number at epoch: 63986

The dashed part of the orbit path shows where the satellite is in the earth's shadow,  

DLR